Wind_Speed
9 7 6 5 4 4 5 6 7 8 10 11 11 11 9 8 6 4 3 3 4 5 7 7 7 7 6 6 5 5 4 3 3 3 3 3 4 5 6 6 7 7 7 7 7 7 7 7 7
9 8 7 6 6 5 5 6 7 9 11 11 12 11 9 8 6 5 4 4 5 6 7 9 9 8 7 6 5 5 4 3 2 1 2 2 3 5 6 6 7 7 7 7 7 7 7 7 7
10 8 7 7 7 6 5 6 8 9 11 12 12 12 11 10 7 6 5 4 6 8 8 9 10 9 8 7 6 5 4 3 2 1 1 2 3 5 6 7 7 7 7 8 7 7 7 7 7
10 9 8 8 8 7 7 7 9 10 11 12 12 12 11 10 8 7 6 5 6 8 9 11 11 10 9 8 8 6 5 3 2 1 0 2 4 5 6 7 7 7 8 8 7 7 7 7 7
10 9 8 8 9 8 8 9 9 11 12 13 12 12 12 10 9 8 7 6 7 8 10 12 12 11 10 9 8 7 6 4 3 2 1 3 3 4 6 7 7 8 8 7 7 7 7 7 7
10 10 9 9 10 9 9 9 10 12 13 13 13 13 13 12 10 9 8 8 8 9 11 12 13 13 12 10 9 8 7 5 4 3 2 3 3 4 5 7 8 8 8 8 7 7 7 7 7
11 11 10 11 11 10 10 10 11 12 13 14 13 13 14 12 11 10 9 9 10 11 11 12 13 14 13 11 10 9 8 7 5 4 3 3 4 5 6 7 8 9 8 8 7 8 8 8 7
12 12 12 12 11 10 10 10 11 12 14 14 14 14 14 13 12 11 10 10 10 11 13 14 14 14 13 13 12 10 8 8 6 6 5 4 5 5 6 8 9 9 9 8 8 8 8 8 8
12 12 12 12 12 11 12 12 12 13 14 14 14 14 14 14 13 12 11 10 10 11 13 15 15 15 15 14 13 11 10 9 8 7 6 6 6 6 7 8 9 10 9 9 9 9 9 9 8
12 12 12 13 13 13 13 13 12 12 13 14 14 14 14 14 14 13 12 11 11 12 13 15 16 16 16 16 14 13 12 11 9 8 8 8 7 7 8 9 10 10 10 9 9 9 8 8 7
12 12 13 14 13 13 13 13 12 12 13 14 15 15 14 14 14 13 12 11 12 13 14 17 17 17 18 17 16 15 13 12 11 10 10 9 9 8 8 9 10 10 10 9 8 8 6 6 6
11 11 12 12 13 13 13 13 13 13 14 15 16 16 16 16 16 15 13 12 12 13 15 18 19 18 18 18 18 16 14 13 12 11 11 10 9 9 9 9 10 9 9 8 7 6 5 5 5
10 10 11 11 12 12 13 13 13 13 15 16 17 17 17 17 16 16 14 12 13 14 15 17 17 18 20 20 19 18 16 14 13 12 11 11 10 10 9 9 9 9 8 7 6 5 4 4 4
10 9 10 10 11 11 11 12 13 14 15 16 16 17 16 17 16 15 14 13 13 13 14 17 18 19 20 21 20 19 17 15 14 13 11 11 11 11 10 10 9 8 7 6 4 4 3 3 3
10 10 10 11 10 10 11 11 13 14 15 16 17 17 18 18 18 17 15 14 12 11 14 17 18 20 20 21 21 19 17 15 13 13 12 12 12 11 10 9 8 7 6 5 4 3 2 2 1
11 11 11 12 11 10 11 10 12 14 16 18 19 18 18 18 18 17 16 14 12 11 14 17 18 20 21 21 22 20 18 15 14 13 13 13 12 11 9 8 7 6 5 4 3 2 1 1 1
13 13 13 13 13 12 12 11 12 15 16 18 19 19 18 18 18 18 15 11 11 11 14 18 20 21 21 21 21 20 18 16 15 14 13 13 12 10 9 8 7 6 5 4 3 2 1 1 1
15 14 14 14 14 14 13 12 13 15 16 17 18 19 19 18 17 16 13 10 10 11 14 19 20 21 21 21 20 20 19 18 16 14 14 12 11 10 9 8 7 6 5 4 3 2 1 1 1
16 15 15 15 15 15 13 13 14 14 15 17 17 18 18 17 15 15 12 8 8 10 13 16 19 21 21 20 20 20 20 18 16 14 13 12 11 10 9 8 8 7 6 4 4 3 2 2 2
17 17 16 17 17 16 14 13 14 13 15 16 16 17 17 16 15 14 12 7 7 8 12 16 19 21 21 21 20 20 20 18 16 15 13 13 12 11 10 9 8 8 7 5 4 3 3 2 2
17 17 17 17 17 16 15 13 13 13 15 15 16 16 15 13 13 13 11 9 6 7 11 16 19 21 21 20 19 18 18 17 17 15 14 13 13 12 11 10 9 8 8 6 5 4 3 3 2
17 18 18 19 18 16 16 14 12 14 15 15 15 15 14 12 11 11 10 9 6 7 10 15 18 19 20 20 20 19 18 18 17 16 15 14 14 13 12 10 10 9 9 7 6 5 5 4 3
18 20 20 19 18 17 16 15 12 13 15 15 14 13 13 12 11 10 9 8 6 6 9 14 17 18 19 20 21 21 19 18 18 17 16 15 14 14 13 12 11 10 10 9 8 7 6 5 4
19 20 20 20 18 17 15 14 11 13 14 15 13 12 12 11 10 9 8 8 6 4 7 11 15 18 19 20 20 20 19 19 18 17 17 16 15 15 14 13 12 11 11 10 9 8 8 7 6
21 20 21 20 18 17 15 13 12 13 14 13 12 11 11 11 10 9 8 7 4 4 7 9 13 16 17 18 19 19 19 18 18 17 17 16 16 16 15 14 13 13 12 12 11 10 10 9 8
21 21 21 21 19 17 15 13 12 13 12 11 11 11 11 11 10 8 7 5 3 4 5 8 11 13 14 16 17 18 18 18 17 17 17 17 16 16 16 16 15 14 13 13 12 12 12 11 11
21 22 22 22 21 19 16 13 11 11 11 11 11 11 11 10 9 8 6 4 4 5 5 7 9 11 12 14 15 16 17 17 17 17 17 17 16 16 17 17 17 16 15 15 15 14 14 13 13
22 22 23 22 22 21 17 14 11 11 11 12 10 9 11 11 10 8 6 5 5 6 7 8 10 11 12 13 14 15 16 16 17 17 17 17 17 17 18 18 18 18 17 17 17 17 17 17 17
23 23 23 24 24 22 19 14 12 11 10 10 9 10 11 12 10 8 8 7 6 7 8 9 11 12 13 14 15 16 16 16 17 18 19 19 19 19 19 19 20 20 20 20 20 20 20 20 20
26 26 25 25 24 23 21 15 14 13 12 11 11 11 11 11 10 9 8 8 7 8 9 10 11 12 13 15 16 16 16 16 17 18 19 19 20 20 21 21 22 22 22 23 23 23 23 23 24
Wind_Direction
346 347 347 348 342 354 4 4 4 12 17 18 13 9 7 5 0 344 317 273 247 228 221 221 217 207 191 174 158 144 131 119 104 79 53 32 16 11 10 8 2 359 359 360 2 4 7 9 11
339 336 337 336 333 338 353 353 358 6 10 9 8 6 0 352 341 333 309 263 239 231 224 223 217 212 200 185 171 159 148 135 122 93 53 23 6 3 3 1 360 358 356 356 356 358 1 5 7
330 328 323 324 321 328 340 348 353 0 2 1 5 1 354 346 335 325 306 265 242 233 225 223 218 214 207 194 182 173 164 152 142 129 47 3 355 358 358 356 356 355 353 353 354 353 356 359 359
324 319 316 315 313 321 333 341 349 355 4 3 2 358 353 344 332 318 301 277 256 241 230 226 221 217 210 200 189 185 178 172 174 183 258 330 343 350 349 349 349 347 347 349 349 348 350 349 347
317 312 308 306 308 319 323 331 347 355 3 1 358 354 348 337 327 313 297 278 255 242 233 229 222 217 212 206 199 194 188 189 194 204 276 312 330 340 342 344 342 341 342 344 344 342 341 339 335
311 307 300 299 304 315 325 337 346 350 352 354 351 345 339 334 323 309 293 274 262 248 236 230 223 218 213 211 208 202 198 197 202 217 258 299 317 324 330 335 334 333 334 335 336 334 332 330 330
304 302 294 296 301 309 325 333 339 345 348 348 342 338 337 332 324 308 291 276 262 250 239 230 224 217 212 210 209 210 209 204 208 223 248 277 301 312 319 323 323 323 324 327 328 328 325 322 322
302 296 291 297 300 306 315 325 333 339 342 341 339 336 334 329 322 307 289 277 262 248 241 233 224 217 212 208 208 211 213 213 221 227 242 264 284 300 308 314 316 317 317 318 318 316 314 314 313
302 293 291 293 294 300 308 316 326 333 335 337 338 335 331 326 319 309 292 276 260 249 242 232 224 218 213 208 209 210 215 219 228 232 239 258 276 290 302 307 308 310 312 312 312 312 310 309 307
297 291 289 289 291 297 306 314 322 328 331 331 333 334 332 326 319 307 292 280 266 250 242 229 223 218 213 207 208 211 216 222 231 239 241 255 269 284 296 301 303 305 308 309 308 309 308 305 303
297 290 290 289 293 299 304 310 315 321 326 327 330 331 326 324 322 311 297 286 273 256 242 225 219 215 214 209 207 209 215 224 232 240 245 253 265 277 290 294 298 301 306 308 307 305 305 303 300
294 294 290 290 293 298 300 305 309 317 320 321 324 327 324 319 317 312 298 283 272 257 241 228 218 213 212 210 208 208 215 225 233 240 248 253 261 273 285 290 293 297 302 305 304 302 304 306 301
288 290 289 290 289 295 299 304 308 315 317 319 319 323 323 319 313 308 297 278 268 258 244 227 218 215 214 213 208 207 214 224 232 239 249 251 257 269 279 288 290 293 297 302 300 300 307 305 301
282 281 280 283 286 290 300 309 309 314 318 320 319 319 321 319 313 307 297 278 268 260 236 222 218 217 216 214 210 209 215 222 230 238 246 251 255 265 274 281 284 287 288 290 291 299 304 308 310
272 268 269 274 280 286 297 308 313 314 319 322 321 321 318 318 314 307 294 272 264 253 236 224 215 213 211 209 208 211 214 220 233 237 244 249 253 261 269 273 276 276 277 280 279 287 300 312 310
261 255 258 265 271 283 294 303 310 315 318 321 321 321 319 319 318 312 299 279 262 251 237 221 210 207 207 207 209 213 217 225 232 235 243 248 250 253 257 260 264 262 261 262 262 268 290 315 329
254 251 254 258 265 276 291 299 310 318 322 321 321 322 322 321 319 316 307 287 262 246 230 214 205 202 203 203 207 212 218 223 227 233 240 243 244 242 243 247 249 244 242 243 236 236 258 307 352
251 252 256 260 268 277 288 296 307 315 319 321 320 321 323 321 320 321 314 295 264 240 224 211 205 201 203 204 208 212 215 218 222 228 234 237 234 232 234 236 234 229 226 219 211 199 175 131 87
251 254 256 261 271 278 287 299 308 315 321 324 323 322 324 322 322 322 316 295 262 229 216 205 202 202 203 206 208 209 210 214 220 222 225 225 228 229 232 229 223 216 210 200 194 183 167 136 116
252 254 256 261 272 280 289 303 310 318 323 325 324 324 323 320 317 319 318 293 270 232 213 208 206 204 202 204 202 204 207 211 213 216 219 224 227 228 224 218 214 210 205 197 189 181 171 151 134
254 256 257 262 272 283 291 301 310 318 322 323 320 319 320 319 317 315 314 304 276 235 214 205 203 201 201 201 199 203 205 206 209 213 215 221 223 221 217 216 215 209 203 198 193 189 185 172 157
252 256 258 266 275 283 297 306 313 317 322 327 323 317 318 318 319 316 309 303 280 240 212 202 202 202 202 202 202 205 208 207 207 210 215 218 218 216 215 217 216 210 206 203 201 201 198 192 192
250 255 262 270 277 287 298 307 319 319 322 324 326 321 321 323 319 313 305 301 287 246 208 199 200 200 201 203 204 204 206 207 207 210 214 215 215 215 216 217 216 214 211 209 209 210 210 210 214
250 254 262 269 276 284 294 302 317 320 323 323 322 320 321 323 322 314 304 298 283 241 204 198 195 196 197 199 200 202 206 208 209 212 215 216 216 216 219 220 219 217 216 217 217 218 219 221 229
252 257 263 267 272 281 288 293 309 315 324 323 318 317 320 321 319 317 310 301 275 223 204 190 190 191 195 196 196 200 204 206 210 214 214 216 218 219 221 223 223 223 222 221 221 223 225 231 239
251 256 261 266 271 277 282 292 305 309 322 323 318 314 318 319 315 313 312 302 264 212 194 192 191 191 192 192 194 199 203 206 210 213 215 218 222 222 224 226 227 227 226 227 228 231 235 240 247
242 249 258 264 270 276 281 290 300 307 314 318 315 309 314 317 309 304 300 280 246 224 209 201 194 193 195 197 201 204 209 211 212 216 220 222 225 227 229 231 233 232 232 234 236 238 242 247 252
244 248 252 260 269 274 277 286 295 303 309 313 307 302 310 309 299 291 283 261 241 229 218 211 207 205 204 205 208 208 212 215 218 222 224 226 229 232 235 235 237 237 237 240 242 244 247 251 255
245 250 254 259 266 272 276 279 290 293 303 306 301 298 302 303 292 273 262 255 242 231 224 213 213 214 213 214 215 215 219 221 224 226 229 232 235 238 239 239 240 240 242 244 247 250 253 255 259
247 249 253 259 264 269 272 273 279 282 289 292 291 296 300 296 281 267 256 251 247 234 227 222 218 220 219 218 219 220 223 226 229 233 236 239 241 243 244 243 243 244 246 249 251 254 258 260 262
Height
5881 5881 5881 5881 5882 5881 5880 5879 5878 5877 5876 5876 5875 5874 5874 5874 5875 5877 5875 5874 5875 5876 5877 5878 5880 5881 5881 5882 5883 5884 5885 5886 5887 5888 5889 5890 5890 5891 5891 5891 5891 5891 5891 5891 5891 5890 5890 5890 5890
5881 5881 5881 5881 5881 5880 5880 5879 5878 5877 5876 5875 5874 5874 5873 5873 5873 5873 5873 5873 5874 5875 5876 5877 5879 5879 5880 5881 5882 5883 5884 5886 5887 5888 5888 5889 5890 5890 5891 5891 5891 5891 5891 5891 5891 5891 5891 5891 5891
5881 5881 5882 5881 5880 5880 5880 5879 5878 5877 5876 5874 5873 5873 5873 5872 5872 5872 5872 5872 5873 5874 5875 5876 5877 5878 5879 5880 5881 5883 5884 5885 5886 5887 5888 5889 5889 5890 5890 5890 5890 5890 5890 5890 5891 5891 5891 5891 5891
5881 5881 5881 5881 5879 5879 5879 5878 5877 5876 5875 5874 5873 5872 5872 5871 5871 5871 5871 5871 5871 5872 5873 5875 5876 5877 5878 5879 5880 5882 5883 5884 5886 5886 5887 5888 5888 5889 5889 5889 5890 5890 5890 5890 5890 5891 5891 5890 5891
5880 5880 5880 5879 5878 5879 5878 5877 5876 5875 5874 5873 5872 5871 5870 5870 5869 5869 5869 5869 5870 5871 5872 5873 5874 5875 5877 5878 5879 5881 5882 5884 5885 5886 5886 5887 5887 5888 5888 5889 5889 5889 5889 5890 5890 5890 5890 5890 5890
5880 5879 5879 5878 5877 5877 5877 5876 5875 5874 5873 5872 5871 5870 5869 5868 5868 5867 5867 5867 5868 5869 5870 5871 5872 5873 5875 5877 5878 5880 5881 5883 5884 5885 5885 5886 5887 5887 5887 5888 5888 5888 5889 5889 5889 5889 5889 5889 5889
5880 5878 5877 5877 5876 5876 5876 5874 5873 5872 5872 5871 5870 5868 5867 5866 5866 5865 5865 5865 5866 5866 5868 5868 5869 5871 5873 5875 5877 5879 5880 5881 5883 5884 5884 5885 5886 5886 5886 5887 5887 5888 5888 5888 5888 5888 5888 5888 5888
5878 5877 5875 5875 5875 5875 5874 5873 5872 5871 5870 5869 5868 5866 5865 5864 5863 5863 5863 5863 5863 5864 5865 5866 5867 5869 5871 5873 5875 5877 5879 5880 5881 5883 5884 5884 5885 5885 5885 5886 5886 5887 5887 5887 5887 5887 5887 5887 5887
5876 5876 5874 5874 5873 5873 5872 5871 5870 5870 5868 5867 5866 5865 5864 5862 5861 5860 5860 5859 5860 5861 5861 5863 5865 5866 5868 5871 5873 5875 5877 5879 5880 5881 5882 5883 5884 5884 5884 5884 5885 5885 5886 5886 5886 5886 5885 5885 5885
5875 5874 5873 5873 5872 5872 5871 5870 5869 5868 5867 5865 5864 5863 5861 5860 5858 5857 5857 5857 5857 5857 5858 5859 5862 5864 5866 5869 5871 5873 5875 5877 5878 5880 5881 5882 5883 5883 5883 5883 5884 5884 5884 5884 5884 5884 5884 5884 5884
5873 5873 5872 5871 5871 5870 5870 5869 5867 5866 5865 5864 5862 5861 5859 5857 5856 5854 5853 5853 5853 5853 5854 5856 5858 5861 5863 5866 5868 5871 5873 5875 5877 5878 5879 5880 5881 5882 5882 5882 5882 5882 5883 5883 5883 5883 5883 5883 5883
5872 5871 5870 5870 5869 5869 5868 5867 5866 5865 5864 5862 5860 5858 5856 5854 5852 5850 5849 5849 5849 5849 5850 5851 5854 5857 5860 5863 5866 5868 5871 5873 5875 5877 5878 5879 5880 5880 5880 5880 5880 5881 5881 5881 5882 5882 5882 5882 5882
5870 5869 5869 5868 5868 5867 5867 5865 5864 5863 5861 5859 5857 5855 5853 5851 5848 5847 5846 5845 5845 5845 5846 5847 5850 5854 5857 5860 5863 5866 5868 5871 5873 5875 5876 5877 5878 5879 5879 5879 5879 5879 5880 5880 5880 5881 5881 5881 5881
5868 5868 5867 5867 5867 5866 5865 5864 5863 5861 5859 5857 5855 5853 5850 5848 5845 5843 5842 5841 5841 5841 5842 5844 5847 5851 5854 5857 5860 5863 5866 5869 5871 5873 5874 5875 5876 5877 5878 5878 5878 5878 5878 5879 5880 5880 5880 5880 5880
5866 5866 5866 5865 5865 5864 5864 5863 5861 5859 5857 5854 5852 5849 5847 5845 5842 5839 5837 5836 5836 5837 5838 5841 5844 5847 5851 5854 5858 5860 5863 5866 5868 5870 5872 5874 5875 5876 5876 5876 5877 5877 5877 5878 5879 5879 5880 5880 5880
5863 5864 5864 5864 5863 5862 5863 5862 5860 5857 5855 5852 5849 5847 5844 5841 5839 5836 5833 5832 5832 5832 5834 5837 5840 5844 5848 5851 5855 5858 5861 5864 5866 5868 5870 5871 5873 5874 5875 5875 5876 5876 5877 5877 5878 5879 5879 5879 5879
5861 5861 5861 5862 5861 5860 5860 5859 5857 5855 5852 5849 5847 5844 5841 5838 5835 5832 5829 5827 5828 5828 5830 5833 5837 5841 5845 5848 5852 5856 5859 5862 5864 5866 5868 5869 5871 5872 5873 5874 5875 5875 5876 5877 5877 5878 5879 5879 5879
5858 5858 5859 5859 5859 5858 5858 5857 5855 5852 5850 5847 5844 5842 5839 5835 5832 5829 5826 5825 5824 5825 5826 5830 5834 5838 5842 5846 5849 5853 5856 5859 5862 5864 5866 5868 5869 5871 5872 5873 5874 5874 5875 5876 5877 5878 5878 5879 5879
5855 5856 5856 5857 5856 5855 5855 5854 5852 5850 5848 5845 5842 5839 5836 5833 5830 5827 5825 5823 5822 5822 5824 5827 5831 5835 5839 5843 5847 5850 5854 5857 5860 5863 5865 5866 5868 5870 5871 5872 5873 5874 5875 5875 5876 5877 5878 5878 5879
5852 5854 5854 5854 5853 5853 5852 5851 5849 5847 5845 5843 5840 5837 5835 5832 5829 5826 5823 5821 5821 5821 5822 5825 5829 5833 5837 5841 5844 5848 5852 5855 5858 5861 5863 5865 5867 5868 5870 5871 5872 5873 5874 5875 5876 5877 5878 5878 5879
5850 5851 5851 5851 5851 5850 5849 5849 5847 5845 5843 5841 5838 5835 5833 5830 5828 5826 5823 5821 5820 5820 5821 5823 5827 5830 5835 5839 5843 5846 5850 5853 5856 5859 5861 5863 5865 5867 5869 5870 5871 5872 5873 5874 5875 5877 5878 5878 5879
5847 5848 5848 5848 5848 5847 5847 5846 5845 5843 5841 5838 5836 5834 5831 5829 5827 5825 5823 5821 5819 5819 5819 5821 5825 5829 5833 5837 5841 5845 5848 5851 5854 5857 5859 5862 5864 5865 5867 5869 5870 5872 5873 5874 5875 5876 5877 5878 5879
5845 5845 5845 5845 5845 5845 5845 5843 5843 5840 5838 5837 5835 5832 5830 5828 5826 5824 5823 5821 5819 5818 5819 5821 5823 5827 5831 5835 5839 5843 5846 5849 5852 5855 5858 5860 5862 5864 5866 5868 5869 5871 5872 5873 5874 5876 5877 5878 5878
5841 5842 5842 5842 5843 5843 5842 5841 5841 5839 5837 5834 5833 5831 5829 5827 5826 5824 5822 5820 5819 5818 5819 5820 5823 5826 5829 5833 5836 5840 5844 5847 5850 5853 5856 5858 5860 5862 5864 5866 5868 5869 5871 5872 5873 5875 5876 5877 5877
5837 5839 5839 5839 5840 5840 5840 5839 5839 5837 5835 5833 5831 5829 5828 5827 5825 5824 5822 5820 5818 5819 5820 5821 5823 5826 5829 5831 5835 5839 5842 5845 5848 5851 5854 5856 5859 5861 5863 5864 5866 5868 5869 5871 5872 5873 5874 5875 5876
5834 5835 5836 5837 5837 5837 5837 5836 5837 5835 5833 5831 5830 5829 5827 5826 5825 5823 5822 5820 5819 5821 5821 5823 5824 5826 5828 5831 5834 5838 5841 5844 5846 5849 5852 5854 5856 5858 5860 5862 5864 5866 5867 5869 5870 5871 5873 5873 5874
5829 5831 5832 5833 5833 5833 5834 5835 5835 5833 5832 5831 5829 5828 5826 5825 5824 5823 5822 5821 5821 5821 5822 5824 5825 5826 5828 5831 5834 5837 5840 5842 5844 5847 5849 5852 5854 5856 5858 5860 5862 5863 5865 5866 5868 5869 5870 5871 5872
5826 5827 5828 5829 5829 5829 5831 5832 5832 5831 5830 5829 5828 5826 5825 5824 5823 5822 5822 5822 5822 5822 5822 5823 5825 5827 5828 5831 5833 5836 5838 5840 5843 5845 5847 5849 5851 5853 5855 5857 5859 5860 5862 5863 5865 5866 5867 5867 5868
5821 5822 5823 5824 5825 5826 5827 5831 5830 5829 5828 5828 5826 5825 5824 5822 5822 5821 5821 5821 5821 5822 5821 5822 5824 5826 5828 5830 5832 5834 5836 5839 5841 5842 5844 5846 5848 5850 5852 5853 5855 5857 5858 5860 5861 5862 5863 5863 5864
5816 5817 5819 5820 5821 5821 5823 5828 5826 5826 5825 5825 5824 5823 5822 5821 5820 5820 5820 5821 5821 5821 5822 5822 5823 5825 5827 5828 5830 5832 5834 5836 5838 5840 5842 5843 5845 5846 5848 5849 5851 5852 5854 5855 5856 5857 5858 5858 5859